Temperature
10 10 10 10 9 9 9 9 9 9 9 9 9 9 9 9 9 9 9 10 9 10 10 10 10 10 10 10 10 10 9 9 9 9 9 9 9 9 8 8 9 9 8
10 10 9 9 9 9 9 9 9 9 9 9 9 9 9 9 9 9 9 9 9 9 9 9 9 9 9 9 9 9 9 9 8 8 8 7 8 8 8 8 8 8 8
10 10 9 9 9 8 8 8 9 9 9 8 8 8 8 8 8 8 9 9 9 9 9 9 9 9 9 9 9 9 9 8 8 8 8 7 7 7 7 7 7 7 7
10 10 9 8 8 8 8 8 8 8 8 8 8 8 8 8 8 8 8 8 8 9 9 9 9 9 9 9 9 8 8 8 8 7 7 7 7 7 6 6 7 7 7
10 9 9 8 8 8 8 8 8 8 8 8 8 8 8 8 8 8 8 8 8 8 8 8 8 8 8 8 8 8 8 8 7 7 7 7 7 7 6 5 6 6 6
9 9 9 8 8 8 8 8 8 8 8 8 8 8 7 7 7 7 8 8 8 8 8 8 8 8 8 8 8 7 7 7 7 7 7 7 7 6 6 6 5 5 6
9 9 8 8 8 7 7 7 7 7 7 7 7 7 7 7 7 7 7 7 7 7 7 7 7 7 7 7 7 7 7 7 7 7 7 6 6 6 6 5 5 5 5
9 8 8 8 8 7 7 7 7 7 7 7 7 7 7 7 7 6 7 7 7 7 7 7 7 7 7 7 7 7 7 6 6 6 6 6 6 6 5 5 5 4 4
8 8 7 7 7 7 7 7 7 7 7 6 6 6 6 6 6 6 6 6 6 6 6 6 6 6 6 6 6 6 6 6 6 6 6 5 5 5 5 5 5 4 3
8 7 7 7 7 6 6 6 6 6 6 6 6 6 6 6 6 6 6 6 6 6 6 6 6 6 6 5 5 5 5 5 5 5 5 5 5 5 5 5 4 4 4
7 7 6 6 6 6 6 6 6 6 6 6 6 5 6 5 5 6 6 6 5 5 5 5 5 5 5 5 5 5 5 5 5 4 4 4 4 4 4 4 4 3 3
7 6 6 5 5 5 5 5 5 5 5 5 5 5 5 5 5 5 5 5 5 5 5 5 5 5 5 4 4 4 4 4 4 4 4 4 4 4 4 3 3 3 3
6 6 5 5 5 5 5 5 5 5 5 5 5 5 5 4 4 5 5 4 5 5 4 4 4 4 4 4 4 4 3 3 3 3 3 3 3 3 3 3 3 3 2
6 5 5 5 4 4 4 4 4 4 4 4 4 4 4 4 4 4 4 4 4 4 4 4 4 4 4 3 3 3 3 3 3 3 3 3 3 3 3 2 2 2 2
6 5 5 4 4 4 4 4 4 4 4 4 4 4 4 4 3 4 4 4 4 4 4 3 3 3 3 3 3 3 2 3 2 2 2 2 2 2 2 2 2 2 1
5 5 4 4 4 4 4 4 4 4 4 3 3 3 3 3 3 3 3 3 3 3 3 3 3 3 3 2 2 2 2 2 2 2 2 2 2 2 2 1 1 1 1
5 4 4 4 4 3 3 3 3 3 3 3 3 3 3 3 3 3 3 3 3 3 3 2 2 2 2 2 2 2 2 2 2 2 2 1 1 1 1 1 1 1 0
4 4 3 3 3 3 3 3 3 3 2 2 2 2 2 2 2 2 2 2 2 2 2 2 2 2 1 1 1 1 1 1 1 1 1 1 1 1 0 0 0 0 0
4 3 3 3 3 3 3 2 2 2 2 2 2 2 2 2 2 2 2 2 2 2 1 1 1 1 1 1 1 1 1 1 1 1 0 0 0 0 -0 -0 -0 -0 -0
3 3 2 2 2 2 2 2 2 2 1 2 2 2 2 1 1 1 1 1 1 1 1 1 1 1 1 0 0 0 0 0 0 0 -0 -0 -0 -0 -0 -0 -1 -1 -1
2 2 2 2 2 2 1 1 1 1 1 1 1 1 1 1 1 1 1 0 0 0 0 0 0 0 0 0 -0 -0 -0 -0 -0 -0 -0 -0 -1 -1 -1 -1 -1 -1 -1
2 1 1 1 1 1 1 1 1 1 1 0 0 0 0 0 0 0 0 -0 -0 -0 -0 -0 -0 -0 -0 -1 -1 -1 -1 -1 -1 -1 -1 -1 -1 -1 -1 -1 -1 -1 -2
1 1 1 1 1 0 0 0 0 0 0 0 -0 -0 -0 -0 -0 -0 -1 -1 -1 -1 -1 -1 -1 -1 -1 -1 -1 -1 -1 -1 -1 -1 -1 -1 -1 -2 -2 -2 -2 -2 -2
0 0 0 0 0 0 0 -0 -0 -0 -0 -0 -0 -0 -1 -1 -1 -1 -1 -1 -1 -1 -1 -1 -1 -1 -1 -1 -1 -1 -2 -2 -2 -2 -2 -2 -2 -2 -2 -2 -2 -2 -2
-0 -0 -0 -1 -0 -0 -0 -1 -1 -1 -1 -1 -1 -1 -1 -1 -1 -1 -1 -2 -2 -2 -2 -1 -1 -1 -1 -1 -2 -2 -2 -2 -2 -2 -2 -2 -2 -2 -2 -2 -2 -3 -3
-1 -1 -1 -1 -1 -1 -1 -1 -1 -1 -1 -1 -1 -2 -2 -2 -2 -2 -2 -2 -2 -2 -2 -2 -2 -2 -2 -2 -2 -2 -2 -2 -2 -3 -3 -2 -2 -3 -3 -3 -3 -3 -3
Wind_Speed
2 2 2 4 4 3 3 3 3 3 2 2 2 2 1 1 1 2 3 4 3 3 4 2 2 2 3 4 3 3 3 2 2 2 1 1 1 2 2 3 3 2 2
2 2 2 4 4 3 3 3 3 3 3 2 2 2 2 1 1 2 3 3 3 3 4 3 3 3 3 4 3 3 3 2 2 2 2 0 1 1 2 2 2 2 2
3 3 3 3 3 3 3 3 3 3 3 2 2 2 2 2 1 1 2 2 4 3 3 3 3 3 3 3 3 3 3 4 2 2 2 2 2 1 1 2 2 2 2
3 3 4 3 3 3 3 3 3 3 3 3 3 3 3 2 1 2 2 2 3 3 3 3 3 3 2 3 3 2 2 3 3 1 0 2 2 2 1 1 1 2 2
3 4 4 4 3 3 3 3 3 3 3 3 3 3 2 1 1 2 2 2 2 3 3 3 3 2 2 2 2 2 2 2 3 2 1 1 1 1 2 2 2 1 2
3 4 4 4 3 3 3 4 3 3 3 3 3 4 3 2 2 2 3 2 2 2 2 3 3 2 2 2 2 2 2 2 2 2 2 2 2 2 2 3 3 3 2
3 3 4 3 3 4 4 4 4 3 3 3 3 3 4 3 2 2 3 2 2 2 2 2 2 2 2 2 2 2 2 2 2 2 2 1 2 2 2 2 3 3 3
3 3 3 3 3 3 4 4 4 3 3 3 3 3 3 3 2 2 2 2 2 2 2 2 2 3 3 2 2 2 2 2 2 2 2 1 2 1 2 2 2 3 3
3 3 2 2 2 3 3 4 4 3 3 3 2 2 2 2 2 2 2 2 2 2 2 2 2 2 2 2 2 2 2 2 2 2 2 2 2 1 2 2 3 3 4
2 2 2 2 2 2 3 3 4 4 3 3 3 2 2 2 2 2 2 2 2 2 2 2 3 2 2 2 2 2 2 2 2 2 2 2 2 2 2 2 2 3 4
2 2 2 2 2 3 3 3 3 3 3 3 2 2 2 2 2 2 2 2 2 2 2 2 2 2 2 2 2 2 2 2 2 2 2 2 2 2 2 2 2 3 3
3 3 2 2 2 3 3 3 3 3 3 3 2 2 2 3 2 2 2 2 2 2 2 2 2 2 2 2 2 2 2 3 3 2 2 3 2 3 3 3 3 3 3
3 3 2 2 2 2 2 2 3 3 3 3 3 3 3 3 2 2 2 2 2 2 1 2 2 2 2 2 2 2 2 2 3 3 3 4 3 3 3 3 3 3 3
2 2 2 1 1 1 1 1 2 3 3 3 3 3 3 3 2 2 2 1 2 2 2 1 1 1 1 1 2 2 2 2 2 2 3 4 4 5 4 4 4 4 3
2 2 1 1 1 1 1 1 2 2 3 3 3 3 3 3 2 2 2 1 1 1 2 1 1 1 2 2 2 2 2 2 2 2 3 4 4 5 5 4 4 4 4
1 1 1 1 1 1 1 1 1 1 2 3 3 3 3 2 2 2 1 1 1 1 1 2 2 2 2 3 4 3 2 3 3 3 4 4 4 5 6 8 7 6 6
0 0 0 0 1 1 1 1 1 1 2 2 2 2 2 2 2 1 1 1 1 1 1 1 1 2 2 4 4 4 3 3 4 4 4 4 4 5 4 6 8 8 9
0 0 0 0 0 1 1 2 2 1 2 2 2 2 2 2 1 1 1 1 1 1 1 1 1 1 3 4 4 4 2 3 4 4 4 4 4 4 5 4 4 5 6
1 1 1 1 1 1 2 2 2 1 1 2 2 2 2 2 1 2 2 1 1 1 1 1 2 2 2 4 4 3 2 2 3 4 4 4 4 6 6 4 4 5 5
2 2 2 2 2 2 2 2 1 1 1 1 1 1 1 1 2 2 2 1 2 2 1 2 2 2 3 4 4 4 2 3 3 3 3 5 6 7 6 4 4 5 5
3 2 2 2 1 2 1 1 1 1 1 1 1 0 0 1 1 1 1 1 2 1 2 2 2 2 3 4 5 4 2 3 3 3 3 3 6 7 7 6 4 7 6
3 3 2 2 2 2 1 0 0 0 1 1 0 1 1 1 1 1 1 1 2 2 2 2 2 2 2 3 4 5 5 3 3 3 3 3 6 7 7 6 6 8 7
3 2 2 2 2 1 1 0 1 1 1 0 0 1 1 1 1 1 2 2 2 2 2 2 2 2 2 3 5 5 5 5 3 3 4 5 6 6 5 6 8 6 3
3 2 2 1 1 1 1 1 0 0 0 1 1 1 1 1 1 1 1 2 2 3 3 3 3 3 2 2 2 2 2 3 3 3 4 6 6 5 5 5 4 3 3
2 2 1 1 1 1 1 1 1 1 1 1 1 1 1 2 2 2 2 3 3 4 4 4 4 4 4 5 5 3 3 2 3 3 2 2 2 2 2 2 3 2 3
2 2 2 2 2 2 2 2 1 1 1 1 1 1 2 2 2 2 3 3 4 5 5 5 5 4 5 6 6 6 6 6 5 3 2 3 3 3 3 3 3 3 3
Wind_Direction
191 153 146 138 125 124 137 142 138 139 132 138 143 141 158 174 159 150 145 139 143 153 143 148 154 148 147 149 141 140 136 133 115 88 58 336 221 166 163 150 140 127 120
187 154 137 128 138 146 149 142 146 144 139 158 164 160 150 156 163 150 141 141 148 150 151 151 156 154 152 147 143 149 142 159 142 138 140 76 316 242 186 171 173 171 148
178 159 142 135 141 141 143 151 148 144 141 146 135 126 96 86 105 128 161 153 149 148 142 144 145 150 152 155 159 161 155 174 189 166 158 165 207 276 248 204 184 172 176
166 153 152 157 156 145 141 153 148 144 141 141 143 145 141 150 175 158 154 152 142 144 152 148 143 147 150 158 168 160 162 165 182 197 168 171 158 165 260 263 225 198 201
156 154 155 160 147 140 150 156 146 143 141 143 145 139 121 118 111 119 123 134 136 137 142 137 128 136 152 165 155 149 167 169 179 182 202 229 156 178 199 250 259 265 237
147 140 135 136 138 144 153 154 148 144 141 145 143 139 132 120 113 128 143 142 140 139 137 138 137 147 153 166 167 165 175 181 179 179 182 188 197 209 209 237 247 252 255
132 127 128 137 147 150 149 152 150 151 150 154 153 153 142 137 140 143 152 154 152 148 162 147 149 150 147 152 152 151 173 182 176 188 201 209 224 217 223 228 252 267 265
111 118 127 138 145 146 148 147 146 144 143 152 152 151 143 142 145 140 142 149 155 157 156 144 148 146 142 149 145 149 177 179 178 195 199 223 236 238 225 226 239 268 276
106 120 122 130 138 145 149 148 148 142 142 142 132 128 134 133 134 137 132 132 137 133 139 141 153 141 139 153 156 163 183 187 191 196 200 225 238 226 229 230 216 224 258
106 108 123 130 135 140 135 140 145 152 149 147 143 135 132 133 130 126 131 128 122 127 143 149 151 145 154 167 169 175 188 188 201 201 205 235 249 242 232 231 240 232 239
126 116 103 109 122 123 122 126 130 131 135 133 126 124 131 126 126 128 130 128 124 139 150 160 158 162 171 176 178 188 196 203 212 215 215 239 248 250 246 243 242 248 239
104 101 98 102 107 119 130 135 135 135 141 140 135 133 126 117 116 117 121 124 137 145 147 154 161 173 176 184 186 201 214 211 213 216 224 246 255 252 248 242 242 246 242
104 98 94 102 109 110 123 138 138 138 137 136 135 131 130 126 127 121 120 133 150 147 155 158 172 188 189 188 201 213 224 225 219 215 226 237 235 244 245 244 247 252 257
119 114 115 114 106 105 106 131 138 138 139 138 142 145 142 139 140 138 138 140 148 155 162 165 186 201 207 210 211 220 230 238 240 233 235 238 235 235 234 244 243 247 249
111 115 130 133 108 89 74 71 112 126 142 144 145 147 139 132 132 132 131 129 146 165 158 162 187 205 218 216 206 216 230 236 243 249 250 250 249 249 249 251 243 238 244
121 142 134 121 123 119 105 72 83 110 135 140 142 137 135 133 131 134 131 136 157 171 162 179 194 216 240 232 243 253 242 241 237 247 258 260 259 261 269 266 264 255 247
178 195 161 148 127 138 133 137 117 111 116 127 130 133 133 136 146 151 150 165 176 168 178 187 192 219 229 237 247 254 256 243 239 239 248 262 261 266 254 264 273 271 268
332 185 112 84 79 103 116 116 112 115 127 128 129 132 137 147 158 167 188 202 189 185 205 213 215 232 242 247 253 259 261 254 246 239 238 246 254 255 258 253 258 257 263
12 44 64 54 78 92 103 107 106 115 124 133 140 146 143 154 185 207 215 212 201 210 222 215 219 227 246 253 256 270 253 254 254 255 249 251 251 262 272 265 257 265 269
43 52 39 39 60 62 95 119 141 147 161 153 134 123 136 180 225 234 230 217 200 211 222 231 225 222 234 250 258 269 248 248 257 262 259 258 260 267 267 255 246 260 272
45 52 49 37 55 63 86 133 153 173 148 116 114 141 197 221 230 249 253 210 200 207 226 234 240 231 237 244 253 259 256 237 245 252 258 259 268 277 276 270 252 260 274
32 39 45 30 33 54 74 134 199 102 81 91 150 211 237 250 245 230 254 229 203 211 228 229 242 238 232 240 250 255 264 273 254 254 255 260 277 287 288 281 270 278 285
17 23 38 32 28 45 73 250 240 111 120 181 250 250 252 240 222 218 226 225 214 222 229 226 239 251 242 240 252 257 264 279 284 269 274 286 290 294 291 281 283 288 277
5 9 22 21 1 12 35 336 324 87 118 266 286 274 255 266 263 247 228 227 228 232 236 238 243 252 251 245 243 248 262 275 281 282 278 283 285 282 277 285 285 270 257
3 6 0 336 321 338 350 351 357 21 319 280 277 274 260 252 266 269 253 245 240 236 241 242 238 240 249 251 261 273 274 266 264 285 285 279 279 274 275 279 276 268 270
1 357 349 346 344 349 338 340 355 352 295 288 286 282 272 267 262 274 297 290 272 275 267 262 260 265 263 264 266 272 278 278 273 279 265 269 271 268 269 275 278 271 266
Height
1476 1477 1478 1478 1479 1479 1480 1481 1482 1483 1484 1484 1485 1486 1488 1489 1490 1493 1495 1497 1498 1500 1501 1503 1505 1505 1507 1509 1511 1513 1515 1516 1518 1519 1519 1521 1521 1522 1523 1524 1524 1525 1525
1473 1474 1475 1475 1476 1477 1477 1478 1479 1480 1481 1482 1484 1485 1486 1487 1488 1490 1492 1494 1496 1497 1499 1500 1502 1503 1504 1506 1508 1510 1512 1514 1515 1516 1517 1518 1520 1519 1520 1521 1521 1522 1522
1471 1472 1472 1473 1473 1474 1475 1476 1477 1479 1480 1481 1481 1482 1483 1484 1486 1488 1490 1492 1493 1495 1497 1498 1500 1501 1502 1503 1505 1506 1508 1510 1513 1515 1516 1516 1516 1517 1518 1518 1518 1519 1519
1469 1469 1470 1471 1471 1472 1473 1474 1476 1477 1478 1478 1479 1480 1480 1482 1484 1485 1487 1489 1491 1493 1494 1496 1497 1499 1500 1502 1503 1505 1507 1508 1510 1512 1513 1514 1514 1515 1514 1514 1515 1515 1516
1466 1467 1468 1469 1470 1470 1471 1473 1474 1475 1476 1476 1478 1478 1479 1480 1482 1483 1485 1487 1488 1490 1492 1493 1495 1496 1498 1499 1500 1502 1504 1506 1507 1508 1510 1511 1511 1512 1512 1510 1511 1512 1512
1464 1465 1467 1467 1468 1469 1470 1470 1471 1472 1474 1475 1476 1477 1477 1479 1480 1480 1482 1484 1486 1488 1489 1491 1492 1494 1496 1497 1498 1500 1501 1503 1504 1505 1507 1508 1508 1508 1509 1508 1507 1508 1508
1462 1463 1464 1465 1466 1467 1467 1468 1469 1470 1472 1473 1474 1475 1476 1477 1478 1479 1481 1482 1484 1485 1487 1488 1490 1491 1493 1494 1496 1497 1499 1500 1501 1502 1503 1504 1504 1505 1505 1505 1504 1504 1504
1460 1461 1462 1463 1464 1465 1465 1466 1467 1468 1470 1471 1472 1474 1474 1475 1476 1478 1479 1480 1481 1483 1484 1485 1487 1488 1490 1491 1492 1494 1495 1497 1498 1498 1499 1500 1500 1501 1502 1502 1502 1500 1499
1459 1460 1461 1461 1462 1463 1463 1464 1465 1466 1468 1469 1470 1472 1473 1474 1475 1476 1477 1478 1479 1481 1482 1483 1484 1485 1487 1488 1489 1490 1491 1493 1494 1495 1495 1496 1496 1497 1498 1498 1499 1499 1496
1458 1459 1460 1460 1460 1461 1461 1462 1463 1464 1466 1467 1468 1470 1471 1472 1473 1474 1475 1476 1477 1478 1479 1480 1481 1482 1483 1485 1486 1487 1488 1489 1490 1491 1491 1492 1492 1493 1493 1494 1494 1494 1494
1457 1458 1459 1459 1459 1460 1460 1461 1461 1463 1464 1465 1466 1467 1468 1470 1471 1472 1473 1474 1475 1476 1476 1477 1478 1479 1480 1482 1483 1483 1485 1485 1485 1486 1487 1488 1488 1488 1489 1489 1489 1489 1489
1456 1457 1458 1458 1458 1458 1459 1459 1460 1461 1462 1463 1464 1465 1466 1467 1469 1470 1471 1472 1473 1473 1474 1475 1476 1476 1477 1478 1479 1480 1481 1481 1482 1482 1483 1484 1484 1484 1484 1484 1484 1484 1484
1455 1456 1456 1457 1457 1457 1457 1458 1458 1459 1460 1461 1462 1462 1464 1465 1466 1467 1469 1470 1470 1471 1472 1472 1473 1473 1474 1475 1476 1477 1478 1478 1478 1479 1479 1479 1480 1480 1480 1480 1479 1479 1479
1454 1455 1455 1455 1455 1455 1455 1456 1456 1457 1457 1459 1459 1460 1462 1463 1464 1465 1466 1467 1468 1468 1469 1470 1470 1471 1471 1472 1473 1474 1474 1474 1474 1474 1475 1475 1475 1475 1475 1475 1474 1474 1474
1453 1453 1453 1453 1453 1453 1454 1454 1454 1455 1455 1456 1457 1458 1460 1461 1462 1463 1463 1464 1465 1466 1466 1467 1467 1468 1468 1469 1469 1470 1470 1470 1470 1470 1471 1471 1471 1471 1471 1470 1470 1469 1469
1451 1452 1452 1452 1452 1452 1452 1452 1452 1453 1454 1454 1455 1456 1457 1458 1459 1460 1461 1461 1462 1463 1463 1463 1464 1464 1465 1465 1466 1466 1466 1466 1466 1466 1466 1466 1467 1466 1466 1466 1465 1465 1464
1449 1449 1450 1450 1450 1450 1450 1450 1451 1451 1452 1452 1453 1454 1455 1456 1456 1457 1458 1458 1459 1460 1460 1460 1461 1461 1462 1462 1463 1463 1463 1462 1462 1462 1462 1462 1462 1462 1461 1460 1460 1459 1459
1447 1447 1447 1448 1448 1448 1448 1449 1449 1449 1450 1450 1451 1452 1453 1453 1454 1454 1455 1455 1456 1456 1457 1457 1457 1458 1458 1459 1459 1459 1459 1458 1458 1458 1458 1457 1457 1457 1456 1456 1455 1454 1454
1445 1445 1445 1446 1446 1446 1446 1446 1447 1447 1448 1448 1449 1449 1450 1451 1451 1451 1452 1452 1453 1453 1454 1454 1454 1454 1455 1455 1455 1455 1454 1454 1454 1454 1453 1453 1452 1452 1452 1451 1450 1449 1448
1443 1443 1443 1444 1444 1444 1444 1444 1444 1445 1445 1446 1446 1447 1447 1448 1448 1448 1449 1449 1450 1450 1451 1451 1451 1451 1451 1452 1451 1451 1450 1450 1450 1449 1449 1449 1448 1448 1447 1446 1445 1444 1443
1442 1441 1441 1441 1442 1442 1442 1442 1443 1443 1444 1444 1444 1445 1445 1445 1445 1445 1446 1446 1446 1447 1447 1447 1447 1448 1448 1448 1448 1447 1447 1446 1445 1445 1445 1444 1444 1443 1443 1442 1441 1439 1439
1440 1440 1440 1440 1440 1440 1440 1440 1441 1441 1441 1442 1442 1442 1442 1442 1442 1442 1443 1443 1443 1444 1444 1444 1444 1444 1444 1444 1444 1444 1444 1443 1442 1441 1441 1440 1439 1439 1438 1437 1436 1436 1435
1439 1439 1438 1438 1438 1438 1439 1438 1439 1439 1439 1439 1439 1439 1439 1439 1440 1440 1440 1440 1440 1441 1441 1441 1441 1440 1441 1441 1440 1440 1440 1439 1438 1438 1437 1436 1435 1435 1434 1433 1432 1432 1431
1438 1437 1437 1436 1436 1436 1437 1436 1436 1436 1436 1436 1436 1436 1436 1436 1437 1437 1437 1437 1437 1437 1437 1437 1437 1437 1436 1436 1436 1436 1435 1435 1434 1433 1433 1432 1431 1431 1430 1429 1428 1427 1426
1437 1436 1435 1435 1435 1435 1434 1434 1434 1434 1434 1434 1434 1434 1434 1433 1433 1434 1434 1434 1434 1435 1435 1434 1434 1433 1433 1433 1433 1432 1432 1431 1431 1430 1429 1428 1427 1426 1425 1425 1424 1423 1423
1435 1434 1434 1433 1433 1433 1433 1432 1432 1432 1432 1431 1431 1431 1431 1431 1430 1430 1430 1431 1431 1431 1431 1431 1431 1430 1430 1429 1429 1429 1428 1428 1427 1426 1425 1424 1423 1422 1421 1421 1420 1419 1418